{"data":{"norad_id":69816,"intl_designator":"2026-153S","name":"QIANFAN-217","alt_names":[],"object_type":"PAYLOAD","status":"ACTIVE","operator":null,"country":"PRC","launch_date":"2026-07-04","launch_site_code":"TAISC","launch_vehicle":null,"mission":null,"orbit_class":"UNKNOWN","rcs_meters":null,"size_class":null,"mass_kg":null,"dimensions":null,"purposes":[],"wikipedia_slug":null,"has_3d_model":false,"image_url":null,"decayed_at":null,"tle_current":{"epoch":"2026-09-20T04:10:06.924000Z","epoch_age_seconds":49862,"freshness":"FRESH","line1":"1 69816U 26153S   26263.17369125  .00000379  00000+0  16267-3 0  9993","line2":"2 69816  88.9976 351.3322 0007301 358.9412   1.1763 14.22764286 11092","mean_motion":14.22764286,"eccentricity":0.0007301,"inclination_deg":88.9976,"raan_deg":351.3322,"arg_perigee_deg":358.9412,"mean_anomaly_deg":1.1763,"bstar":0.00016267,"rev_number":1109,"period_min":101.21142442003,"perigee_km":810.76688340236,"apogee_km":821.27179048556,"semimajor_km":7194.156336944,"source":"CELESTRAK","updated_at":"2026-09-20T09:00:25.123893Z"}}}